Wind_Speed
37 38 39 40 41 42 43 45 46 47 47 48 49 50 50 51 52 52 52 53 53 53 54 54 54 54 54 54 53 53 52 52 51 50 49 47 45 44 42 41 40 39 39 38 38 38 38 38 35 33 32 30 30 34 36 36 37 37 37 36 37 41 45
39 40 41 42 42 43 44 45 46 47 48 49 50 50 51 51 52 52 52 53 53 53 53 54 54 53 53 53 52 52 51 51 50 49 48 46 44 42 41 40 38 38 38 38 38 37 38 39 37 33 31 30 28 29 34 37 38 39 39 38 37 38 43
41 42 42 43 43 44 46 47 48 49 49 50 51 52 52 53 53 53 53 53 53 53 53 53 53 53 53 52 52 51 51 50 49 48 47 45 43 42 41 39 38 37 37 37 37 37 37 38 39 36 32 32 31 28 32 39 41 40 41 41 39 39 41
41 41 42 42 43 45 46 48 49 50 51 52 53 54 54 55 55 54 54 54 54 54 53 53 53 53 52 52 51 50 49 49 48 47 45 44 43 42 41 40 39 38 37 37 36 36 37 37 38 38 34 34 35 32 32 38 41 42 43 42 41 40 40
41 42 43 43 44 45 47 48 50 52 53 54 55 56 56 57 57 57 56 56 56 55 55 54 54 53 52 51 51 50 49 48 47 46 45 44 43 42 41 41 40 39 38 37 37 36 37 37 38 38 36 36 38 37 35 37 39 41 44 44 43 42 42
44 44 45 46 47 48 49 51 53 54 55 56 57 57 58 58 58 58 58 58 58 57 57 56 56 55 54 52 52 51 50 49 48 46 45 44 44 43 43 42 42 41 39 39 38 37 37 38 38 39 38 37 39 39 39 39 39 40 43 45 44 44 44
46 47 48 49 51 53 54 56 57 57 57 57 57 57 58 58 59 59 59 59 59 58 58 57 57 56 55 53 53 52 51 50 49 47 46 45 45 45 44 43 43 42 41 41 40 39 38 38 39 39 39 39 40 40 39 40 41 41 42 43 45 45 46
50 51 53 54 56 58 59 60 60 59 58 58 58 58 58 58 58 58 59 59 59 58 58 57 57 56 55 54 53 52 51 50 49 48 48 47 47 47 46 45 44 43 43 43 43 42 41 40 39 39 39 40 41 41 40 40 42 42 41 41 41 44 47
55 56 58 59 60 61 62 63 63 62 60 59 58 58 58 58 58 58 58 58 58 58 58 57 57 56 56 55 54 53 51 51 51 50 50 50 49 48 48 47 46 46 45 45 45 45 44 42 41 41 41 40 41 42 42 42 42 43 42 41 42 44 46
60 61 61 62 62 63 64 65 65 63 61 59 58 58 58 57 58 57 57 57 57 57 57 57 57 56 56 55 55 54 53 53 53 53 53 53 52 51 50 50 50 49 49 48 47 46 46 45 44 44 43 42 42 43 44 44 44 43 42 43 44 46 47
61 62 63 63 64 65 65 65 64 62 61 60 59 59 58 58 57 57 56 56 56 56 56 56 56 56 56 56 55 55 55 55 55 55 55 55 55 54 53 53 52 52 52 51 50 49 48 47 47 46 46 45 43 43 44 44 46 46 43 43 46 46 47
62 63 64 65 65 66 65 65 63 61 61 61 60 60 60 59 59 57 56 56 56 56 56 56 56 56 56 56 56 56 56 56 56 56 56 56 56 56 55 55 54 54 54 53 52 51 50 49 48 48 48 47 46 45 44 44 47 50 47 44 47 47 46
64 65 67 67 67 66 64 63 61 60 60 61 61 61 61 62 61 60 57 56 57 57 56 56 55 55 55 55 55 55 55 55 55 55 55 55 55 56 56 56 55 55 54 54 54 54 53 51 49 48 48 49 48 47 46 44 45 50 51 47 47 48 47
66 67 68 68 67 65 61 60 59 59 59 59 60 61 62 63 63 62 60 58 58 57 56 56 55 55 54 54 55 55 55 55 55 55 55 55 55 56 56 56 56 56 56 56 56 56 54 53 51 49 48 48 49 49 48 46 46 49 53 51 49 49 48
68 69 69 68 65 61 58 57 57 57 58 59 59 60 61 62 63 63 62 61 60 59 57 56 55 55 55 55 55 55 55 55 55 55 55 55 56 56 56 57 57 57 57 56 57 56 55 54 52 51 49 48 49 50 49 48 47 48 52 54 52 51 50
69 69 67 65 62 59 57 57 56 57 58 59 59 60 61 61 62 62 62 62 62 60 59 58 57 56 56 56 56 56 56 56 56 56 56 56 56 56 57 57 57 58 58 57 57 57 57 56 55 54 53 51 49 50 50 50 49 49 51 54 55 54 52
69 68 66 63 61 59 58 58 58 59 59 60 60 61 61 61 62 62 62 63 63 62 61 59 58 58 58 58 58 58 58 58 58 58 58 58 58 58 58 58 59 59 59 59 59 59 59 58 58 56 56 54 52 50 50 51 50 49 50 53 56 57 55
68 67 65 62 61 60 60 60 61 61 62 62 62 62 62 62 62 62 63 63 63 62 62 61 60 59 59 59 59 60 60 60 60 61 61 61 61 61 61 60 60 60 61 61 61 61 60 60 59 59 57 56 54 52 51 51 52 51 50 52 56 58 58
68 66 64 63 62 61 62 62 63 64 64 64 64 64 64 63 63 63 63 63 62 62 62 62 61 61 61 61 61 62 62 63 63 63 64 65 65 65 65 64 63 63 62 62 62 62 62 61 60 60 59 58 56 54 52 52 53 53 51 51 53 57 60
67 66 65 64 63 63 63 64 65 65 66 66 66 66 66 66 65 65 63 62 62 62 62 62 62 62 62 63 63 63 64 64 65 66 66 67 67 68 68 68 67 66 65 65 64 64 64 63 63 62 62 60 59 57 55 54 54 54 54 53 52 55 59
67 66 66 66 65 65 65 65 66 67 68 68 68 68 68 68 67 65 62 61 61 61 62 62 63 63 63 64 64 64 64 65 66 67 68 69 69 70 70 70 70 69 68 67 66 67 67 67 67 67 66 65 63 61 59 57 56 56 56 55 54 54 57
68 67 67 67 66 66 66 67 67 68 69 69 69 69 69 69 66 63 61 60 60 60 61 62 63 63 64 64 64 64 65 67 68 69 70 71 71 72 72 71 70 70 69 69 68 68 68 69 70 70 70 69 67 65 63 61 59 58 57 57 56 56 56
68 68 68 68 68 67 68 68 68 68 69 69 70 70 70 68 64 61 60 60 60 60 61 61 62 62 63 64 65 66 68 69 70 71 72 73 74 73 73 71 70 69 69 69 69 69 69 70 71 71 71 71 70 68 66 64 63 61 59 58 58 58 57
68 68 69 69 69 69 69 68 68 68 69 69 70 70 68 65 62 60 59 59 60 60 60 60 61 62 63 64 66 68 69 71 72 73 74 74 74 73 72 71 70 69 69 69 69 70 71 71 72 72 72 72 72 71 70 68 67 65 63 61 60 60 59
69 69 68 69 70 70 69 69 69 69 68 68 68 67 64 61 59 58 57 57 58 59 59 60 61 63 64 66 68 69 70 72 73 74 75 74 72 71 71 71 70 70 70 70 70 71 72 73 74 74 74 74 73 73 73 72 71 69 67 64 62 62 62
69 69 69 69 70 71 71 71 70 69 67 66 65 62 58 56 55 55 55 56 57 58 59 61 62 64 66 67 69 71 73 74 75 74 73 72 71 71 71 71 72 72 72 72 72 72 73 74 76 76 76 76 75 75 75 74 73 73 71 68 65 64 65
69 69 69 69 70 70 71 71 70 69 67 64 61 57 54 53 54 54 55 56 58 59 61 63 64 66 68 70 72 74 74 75 74 73 72 71 71 72 72 72 73 74 74 74 74 74 74 75 76 77 78 78 77 76 76 75 74 73 73 71 68 66 67
67 68 68 69 69 69 69 70 69 68 65 61 57 54 53 54 55 56 58 59 61 63 65 67 68 70 72 73 74 74 73 73 72 72 73 73 73 73 73 74 74 75 77 77 77 77 77 77 78 78 80 81 81 80 78 76 74 73 72 72 71 69 69
66 66 66 67 67 68 68 67 66 63 60 57 55 54 55 56 58 59 61 63 65 67 69 71 72 73 73 73 72 72 72 72 73 74 74 75 75 76 76 76 76 76 77 77 77 76 76 75 76 76 78 80 82 83 82 80 77 74 72 70 70 70 71
64 64 65 65 65 65 65 63 61 58 56 55 55 56 57 59 61 63 65 66 68 70 72 72 72 72 71 71 72 73 73 74 75 77 78 79 80 80 79 78 76 74 73 72 72 71 70 69 69 69 70 73 76 79 81 80 77 75 72 71 70 71 71
62 63 63 63 62 61 59 57 56 55 54 55 57 59 61 62 64 65 67 69 70 71 71 70 70 71 72 73 74 75 76 77 79 80 82 83 82 81 79 77 74 72 70 69 68 66 65 64 64 64 64 66 70 74 76 76 74 72 70 69 70 71 72
60 61 60 59 58 56 54 53 53 53 55 57 59 61 62 64 66 67 69 69 69 69 69 70 71 72 74 75 76 78 79 81 82 83 84 83 82 80 79 77 75 72 70 67 65 63 61 60 59 58 59 60 63 67 70 71 70 69 67 65 66 69 72
58 57 56 54 52 51 51 51 52 54 56 58 60 62 64 66 67 68 69 69 69 69 70 71 72 74 75 77 79 81 82 83 83 83 82 81 80 79 78 76 75 72 69 66 63 60 57 56 55 54 54 55 57 61 64 65 65 65 64 63 62 64 69
55 53 52 50 50 50 51 52 54 56 58 60 62 64 66 67 67 67 68 68 69 70 71 72 73 75 77 79 81 82 83 82 81 80 79 78 76 75 74 73 71 69 67 65 62 59 56 54 53 52 52 51 52 54 57 59 59 61 61 60 59 61 64
52 51 50 49 50 51 53 55 57 58 60 62 64 65 66 66 66 66 67 68 69 70 72 74 75 77 78 80 80 80 79 78 77 76 75 74 72 71 70 69 67 66 64 63 61 57 53 51 50 51 51 49 48 49 51 52 53 56 57 56 57 59 60
50 50 50 51 52 54 56 57 59 60 62 63 63 64 64 64 65 66 67 68 70 72 73 75 77 78 78 78 77 76 75 74 73 72 71 69 68 66 66 65 63 62 60 59 57 52 48 46 45 46 47 46 45 45 47 46 46 49 52 52 53 54 55
50 50 51 53 54 56 58 59 60 61 62 62 62 62 63 64 65 66 67 69 71 73 75 76 77 76 75 74 72 72 71 70 69 67 66 65 64 63 62 60 58 56 55 53 52 48 43 40 40 41 42 42 41 42 43 43 42 43 46 48 48 50 51
Wind_Direction
287 287 287 288 288 289 290 290 291 291 290 290 290 290 289 289 289 289 289 289 289 289 288 288 288 288 288 289 289 290 290 290 290 291 291 291 290 289 288 288 288 287 287 287 286 285 284 283 282 279 274 270 272 271 265 260 256 252 249 247 244 240 235
291 291 291 291 292 292 293 292 292 292 292 292 291 291 290 290 289 289 289 288 288 288 288 288 288 289 289 289 290 290 290 290 290 291 291 290 289 288 288 288 288 288 287 286 286 285 284 283 282 280 275 266 263 269 268 261 257 252 249 248 245 241 236
292 293 293 294 294 294 294 294 293 293 293 292 292 291 291 290 289 289 288 288 288 288 288 288 288 289 289 289 290 290 290 290 290 290 290 289 289 288 288 288 288 288 288 287 286 285 283 282 281 280 276 268 259 260 264 260 256 254 249 247 246 243 237
290 290 291 293 294 294 294 293 293 293 292 291 291 290 290 289 289 289 288 288 287 287 287 288 288 288 289 289 289 289 289 289 289 290 289 289 288 288 288 288 288 288 287 287 286 285 283 281 280 279 276 271 262 256 258 257 255 254 252 247 245 243 239
288 288 289 291 292 293 293 293 293 292 291 291 290 290 289 289 288 288 287 287 287 287 287 287 287 288 288 288 288 288 289 289 289 289 288 288 288 288 288 288 288 287 285 286 286 285 283 280 278 277 275 272 266 260 256 255 253 252 252 249 246 243 241
287 288 288 289 292 294 294 295 295 294 293 291 290 289 288 288 287 287 286 286 286 286 286 286 287 287 287 287 287 288 288 287 287 287 286 286 286 286 287 288 287 286 285 285 285 285 283 280 278 277 275 272 269 265 260 256 254 251 251 250 247 244 242
287 288 289 290 292 294 296 298 298 297 295 292 290 289 288 287 286 286 285 285 285 285 285 285 286 286 286 286 286 287 287 286 285 285 285 285 286 286 286 286 285 285 285 285 285 285 284 281 278 277 276 273 270 268 264 259 255 252 249 249 249 246 243
287 288 290 292 293 295 298 300 300 299 296 293 291 288 287 286 285 285 284 284 284 284 284 284 284 285 285 285 286 286 285 285 284 284 285 285 285 285 285 285 284 283 283 284 284 285 284 282 280 277 275 274 272 269 267 262 257 254 249 246 248 248 244
287 289 291 293 294 296 298 300 301 299 297 294 291 288 287 286 285 284 284 284 284 284 284 284 284 284 284 285 285 285 284 283 283 283 284 284 284 284 283 283 283 282 282 282 282 283 283 282 280 278 276 274 273 270 268 265 260 256 251 245 244 245 243
288 290 292 294 295 297 299 300 300 298 295 293 290 289 288 287 286 285 284 284 284 284 284 284 284 284 284 284 284 283 282 282 282 282 283 284 283 283 282 281 281 281 281 280 280 280 280 280 279 277 276 274 272 271 269 267 264 258 253 248 244 243 242
289 291 293 295 297 298 299 299 298 296 294 292 290 289 288 287 287 286 285 285 284 284 283 283 283 284 284 283 283 283 282 282 282 282 283 283 283 282 281 280 280 280 280 279 279 278 278 278 277 276 275 273 272 270 268 266 264 262 256 250 247 245 242
290 292 295 297 298 298 298 297 296 294 293 292 291 289 288 287 287 286 286 286 284 284 283 283 283 283 283 283 283 283 283 283 283 283 283 282 282 281 280 280 279 279 278 278 277 278 278 276 275 273 273 272 271 270 268 265 262 262 259 251 248 247 244
290 292 294 296 296 297 296 295 295 295 294 293 292 290 289 288 287 287 287 286 285 284 284 284 284 284 284 284 284 284 284 283 283 283 282 282 281 280 280 279 278 277 277 277 276 276 276 275 273 271 270 270 271 270 268 265 260 259 259 255 249 248 246
289 291 292 294 295 295 294 294 295 295 295 294 293 291 290 289 288 287 286 285 284 284 284 284 284 284 284 284 284 284 283 283 283 283 282 281 281 280 279 279 278 277 276 276 275 275 275 274 272 270 268 267 269 270 268 265 260 256 257 256 252 248 246
288 290 292 294 294 293 293 293 293 294 294 294 294 293 291 290 289 288 286 285 284 284 284 284 283 283 283 283 283 283 283 283 283 283 283 282 282 281 280 279 278 278 277 276 275 274 274 272 271 270 267 265 266 268 268 265 261 257 255 255 253 249 246
289 291 292 293 292 291 291 292 292 293 293 294 294 294 293 292 291 289 287 285 284 283 283 283 283 283 283 283 283 283 284 284 284 284 284 284 283 282 281 280 279 278 277 276 275 274 273 272 271 270 268 266 265 266 265 263 261 258 255 254 253 251 247
290 291 292 292 291 290 290 290 291 292 293 294 295 295 295 294 293 291 288 286 284 283 282 282 282 282 283 283 284 284 285 285 285 285 285 285 284 283 282 281 279 278 277 276 275 273 272 271 270 269 268 267 265 264 263 260 259 257 255 254 253 251 249
290 290 291 290 289 288 289 289 290 291 293 293 294 295 295 295 294 292 289 286 284 283 282 281 281 282 282 283 284 284 285 286 287 287 287 287 286 285 284 282 280 278 277 275 274 273 272 270 269 268 267 267 266 264 261 258 256 256 254 253 253 252 250
288 289 289 289 288 287 287 288 289 291 292 293 294 295 295 295 294 292 289 286 284 282 282 281 281 281 282 283 283 284 285 286 287 287 287 287 287 286 285 283 281 279 277 275 273 271 270 269 268 268 267 266 266 264 261 257 255 254 253 252 252 252 251
287 287 288 288 287 287 287 288 289 290 292 293 294 295 294 294 293 292 289 285 283 282 281 281 281 281 282 282 283 284 285 286 286 286 286 286 285 285 284 283 282 280 278 275 273 271 270 268 267 267 266 266 265 264 261 257 254 253 252 252 251 252 252
286 286 286 287 287 287 287 288 289 291 292 293 293 293 294 294 294 291 288 285 283 281 281 281 281 281 281 282 283 284 285 286 286 285 285 285 285 284 284 283 282 280 278 276 274 272 270 269 267 267 267 266 265 264 262 258 254 252 250 251 251 251 251
284 285 285 286 286 286 287 288 289 290 291 292 292 293 293 294 294 291 287 285 283 282 281 281 281 282 283 284 285 285 285 285 285 285 285 285 285 285 284 283 281 280 278 275 274 272 270 269 268 267 267 266 265 264 262 259 256 253 250 248 249 251 251
284 284 284 285 285 286 286 287 288 289 290 291 292 293 294 294 292 289 287 285 284 283 283 283 283 284 284 285 285 286 286 286 286 286 287 287 287 286 285 284 282 280 278 275 273 272 271 269 268 267 266 266 265 264 262 260 257 255 251 248 247 248 250
283 283 284 284 285 285 286 287 288 289 290 291 292 293 293 292 290 288 287 286 285 285 285 285 285 285 285 285 285 285 286 286 287 287 288 288 288 287 286 285 283 281 279 277 275 274 272 271 269 267 266 265 264 263 262 260 258 256 253 249 247 246 246
283 283 284 284 285 286 286 287 287 288 289 290 292 293 291 290 288 288 288 287 287 286 286 286 285 285 285 285 286 286 287 288 288 289 289 288 287 287 286 285 284 282 280 279 277 276 274 273 272 270 268 266 265 263 262 261 259 257 255 251 247 245 244
282 283 284 285 286 287 287 288 288 289 290 291 292 291 289 287 288 288 289 288 287 287 286 286 286 286 287 287 288 289 289 290 290 289 288 287 286 285 285 285 284 283 282 280 279 277 276 274 274 273 271 269 267 265 263 261 260 258 257 254 249 246 244
282 283 284 285 287 288 289 290 291 292 293 293 293 291 289 288 289 289 289 289 288 289 289 289 289 290 290 290 290 291 291 290 290 289 288 287 286 286 285 285 284 284 282 281 279 278 276 275 274 273 272 271 269 267 264 262 260 258 257 256 253 248 245
283 284 285 286 287 288 289 290 291 293 293 293 292 292 291 291 291 291 291 291 292 292 292 293 293 293 292 292 292 292 291 290 290 289 289 288 288 287 286 286 285 284 283 282 280 278 277 275 274 273 272 271 270 268 266 263 260 258 255 255 253 251 248
282 283 285 286 287 288 289 290 291 291 292 292 292 292 292 293 293 293 294 294 295 295 295 295 295 294 294 293 293 292 292 292 292 292 292 292 291 291 289 288 287 286 285 284 282 280 278 277 275 273 272 271 270 268 267 264 261 258 254 252 251 250 249
282 283 283 285 286 287 288 289 290 291 291 292 293 293 294 294 294 294 295 295 296 296 296 296 296 295 295 295 294 294 295 295 296 296 296 296 295 294 293 292 291 289 288 286 285 283 282 279 277 275 272 270 269 268 266 265 262 259 255 250 247 246 246
281 282 284 285 286 287 288 289 290 291 292 293 293 293 293 293 293 294 295 296 297 297 297 297 296 296 296 296 297 297 298 299 299 299 299 298 298 297 296 296 295 293 292 290 289 287 285 283 280 277 273 270 268 266 265 264 263 260 256 251 246 243 241
282 283 285 286 286 287 288 289 290 291 291 291 291 291 291 292 293 295 296 296 297 297 297 296 296 297 297 298 299 300 300 301 301 300 300 300 299 299 299 298 298 297 296 295 293 291 289 286 282 279 275 271 267 265 264 263 262 260 257 252 246 241 238
283 283 284 284 285 286 287 288 289 289 289 289 289 290 292 293 294 295 296 296 296 296 296 296 297 298 299 300 301 301 301 301 301 301 301 300 300 300 300 300 300 299 299 298 296 294 292 289 286 281 277 272 268 265 263 263 262 260 257 253 248 242 237
282 282 282 283 283 285 286 287 287 288 288 289 290 292 293 294 295 295 295 295 295 296 296 297 298 299 300 301 301 301 301 301 301 301 301 301 301 300 300 300 300 301 301 300 299 298 296 293 290 285 280 275 270 267 264 262 261 259 257 254 249 244 238
281 281 281 282 283 284 285 286 287 288 289 290 292 293 294 294 295 295 295 295 296 296 297 298 299 300 300 301 301 301 301 301 301 301 301 301 301 301 301 301 302 302 302 301 300 299 297 294 289 285 282 278 274 270 266 263 260 259 257 254 250 245 239
280 281 281 282 283 284 285 287 288 289 290 292 293 293 294 294 295 295 295 296 296 297 298 299 300 300 301 301 301 301 301 301 301 301 301 301 302 302 302 302 303 303 303 302 300 299 297 293 289 284 282 280 276 272 268 265 261 257 256 254 251 247 241
280 281 282 283 284 285 287 288 289 290 291 292 293 294 294 294 294 295 295 296 297 298 299 300 300 301 301 301 302 302 302 302 302 302 302 302 303 303 303 304 304 305 304 303 302 301 298 294 289 285 282 280 276 272 269 266 261 256 254 253 250 247 242
Height
10717 10716 10715 10714 10713 10712 10711 10710 10709 10708 10707 10706 10705 10704 10703 10702 10701 10700 10700 10699 10698 10697 10696 10696 10695 10694 10693 10692 10692 10691 10690 10689 10688 10687 10687 10686 10686 10684 10683 10682 10680 10679 10678 10677 10677 10676 10675 10674 10675 10677 10677 10677 10677 10677 10677 10677 10677 10677 10677 10678 10679 10680 10683
10712 10711 10710 10709 10709 10708 10707 10705 10704 10703 10702 10701 10700 10699 10698 10697 10696 10695 10695 10693 10692 10691 10691 10690 10688 10688 10687 10686 10685 10685 10684 10683 10682 10681 10680 10680 10679 10678 10677 10676 10675 10674 10672 10671 10671 10670 10670 10668 10668 10671 10672 10672 10672 10673 10674 10673 10671 10671 10672 10672 10674 10675 10677
10707 10706 10705 10705 10704 10703 10702 10701 10700 10699 10697 10696 10695 10694 10692 10692 10691 10690 10689 10688 10687 10686 10685 10684 10683 10682 10681 10680 10679 10679 10677 10676 10676 10675 10674 10673 10673 10672 10671 10670 10669 10669 10667 10666 10665 10665 10664 10663 10662 10664 10666 10666 10665 10669 10670 10667 10665 10665 10666 10667 10668 10670 10671
10703 10702 10701 10700 10700 10699 10698 10697 10695 10694 10692 10691 10689 10688 10687 10686 10685 10685 10684 10682 10681 10680 10679 10678 10677 10676 10675 10674 10673 10672 10671 10670 10669 10668 10667 10667 10666 10666 10665 10664 10663 10663 10662 10660 10660 10659 10659 10658 10657 10657 10660 10659 10658 10661 10663 10660 10659 10659 10659 10660 10662 10664 10666
10698 10697 10697 10696 10695 10694 10693 10692 10691 10689 10687 10686 10684 10683 10681 10680 10679 10679 10677 10676 10675 10674 10673 10673 10671 10670 10670 10668 10667 10666 10665 10664 10663 10662 10661 10660 10660 10659 10659 10658 10657 10657 10656 10655 10654 10654 10653 10653 10652 10651 10653 10653 10651 10653 10655 10653 10653 10653 10653 10654 10656 10658 10660
10693 10692 10691 10691 10690 10689 10688 10687 10685 10683 10682 10680 10679 10677 10675 10674 10673 10672 10671 10670 10669 10668 10667 10666 10665 10665 10664 10663 10661 10660 10659 10658 10658 10656 10655 10655 10654 10653 10653 10652 10651 10651 10650 10649 10648 10648 10647 10647 10646 10645 10646 10646 10645 10646 10647 10646 10646 10647 10647 10648 10650 10652 10653
10687 10686 10685 10685 10684 10683 10682 10681 10679 10677 10676 10674 10672 10670 10669 10667 10666 10665 10664 10663 10662 10662 10661 10660 10659 10658 10657 10656 10655 10654 10653 10652 10651 10650 10649 10649 10648 10647 10647 10646 10645 10645 10644 10643 10642 10641 10641 10641 10640 10640 10639 10639 10638 10638 10639 10640 10639 10640 10642 10643 10644 10646 10647
10682 10680 10679 10678 10677 10676 10675 10674 10672 10671 10669 10667 10666 10664 10662 10661 10659 10658 10658 10656 10656 10655 10654 10654 10652 10651 10651 10650 10649 10648 10647 10645 10645 10644 10643 10642 10641 10640 10640 10640 10639 10639 10638 10637 10636 10635 10635 10634 10634 10634 10633 10632 10632 10631 10632 10632 10632 10633 10636 10638 10639 10639 10641
10675 10674 10673 10672 10671 10670 10668 10667 10666 10664 10662 10660 10659 10657 10655 10654 10652 10651 10651 10650 10649 10648 10647 10647 10646 10645 10644 10643 10642 10641 10640 10639 10638 10637 10636 10635 10634 10633 10633 10632 10632 10632 10632 10631 10630 10629 10628 10628 10628 10627 10626 10626 10625 10624 10624 10625 10625 10626 10629 10631 10632 10632 10634
10669 10668 10667 10666 10664 10663 10662 10661 10659 10657 10656 10654 10652 10650 10648 10647 10645 10645 10644 10643 10642 10641 10640 10639 10639 10638 10637 10636 10635 10634 10633 10632 10631 10630 10629 10628 10627 10626 10626 10625 10625 10624 10624 10624 10623 10623 10622 10621 10621 10620 10619 10620 10620 10618 10618 10618 10617 10619 10622 10624 10624 10625 10627
10663 10662 10661 10660 10658 10657 10655 10654 10653 10651 10649 10647 10645 10643 10642 10640 10639 10638 10637 10636 10635 10634 10634 10633 10632 10631 10630 10629 10628 10627 10626 10625 10624 10623 10622 10620 10619 10619 10618 10618 10617 10617 10616 10616 10616 10616 10615 10614 10614 10613 10612 10612 10613 10612 10612 10612 10610 10610 10614 10617 10616 10617 10620
10657 10656 10655 10654 10652 10651 10649 10648 10647 10645 10643 10641 10639 10637 10635 10633 10632 10631 10631 10630 10628 10627 10626 10626 10625 10624 10623 10621 10620 10619 10618 10617 10616 10615 10614 10613 10612 10611 10610 10610 10610 10609 10608 10608 10608 10608 10607 10607 10606 10606 10605 10605 10605 10605 10606 10607 10605 10602 10604 10609 10609 10610 10613
10652 10650 10649 10648 10647 10645 10644 10642 10641 10639 10636 10634 10632 10630 10628 10626 10625 10625 10624 10623 10621 10620 10619 10618 10617 10616 10615 10614 10612 10611 10610 10609 10608 10607 10606 10605 10604 10603 10603 10602 10602 10601 10601 10600 10600 10599 10599 10599 10599 10598 10598 10597 10597 10598 10598 10601 10601 10596 10595 10599 10602 10602 10605
10646 10645 10644 10643 10641 10640 10638 10637 10635 10633 10630 10628 10626 10624 10621 10619 10618 10618 10617 10616 10614 10613 10612 10611 10610 10609 10608 10606 10605 10604 10602 10601 10600 10599 10598 10598 10597 10596 10595 10594 10594 10593 10593 10592 10591 10591 10591 10590 10590 10590 10590 10590 10589 10589 10590 10592 10594 10591 10587 10589 10593 10595 10598
10641 10640 10638 10637 10636 10634 10633 10631 10629 10627 10625 10622 10620 10618 10615 10613 10612 10611 10610 10609 10607 10606 10605 10604 10603 10601 10600 10599 10598 10596 10595 10594 10592 10591 10590 10589 10588 10588 10587 10586 10585 10584 10584 10584 10583 10583 10582 10582 10582 10581 10581 10582 10582 10581 10582 10583 10585 10585 10582 10581 10584 10587 10589
10634 10634 10632 10631 10629 10628 10627 10625 10624 10622 10619 10617 10614 10612 10610 10608 10606 10604 10603 10601 10600 10599 10597 10596 10595 10594 10592 10591 10590 10589 10587 10586 10585 10583 10582 10581 10580 10579 10578 10577 10577 10576 10575 10575 10574 10574 10574 10573 10573 10573 10572 10573 10574 10573 10573 10575 10576 10578 10577 10574 10574 10577 10580
10628 10627 10626 10624 10623 10622 10620 10619 10617 10615 10613 10611 10608 10606 10604 10602 10600 10597 10595 10594 10592 10591 10589 10588 10587 10586 10585 10583 10582 10581 10579 10578 10577 10575 10574 10573 10571 10570 10569 10569 10568 10567 10566 10566 10565 10565 10565 10564 10564 10564 10563 10563 10565 10565 10565 10566 10567 10569 10570 10568 10565 10567 10571
10622 10621 10619 10618 10616 10615 10613 10612 10610 10608 10606 10604 10602 10600 10598 10595 10593 10590 10588 10586 10584 10582 10581 10580 10579 10578 10577 10575 10574 10572 10571 10570 10568 10567 10565 10563 10562 10561 10560 10559 10558 10557 10557 10556 10555 10555 10554 10554 10554 10554 10554 10554 10555 10556 10556 10557 10558 10560 10562 10561 10558 10558 10561
10616 10615 10613 10611 10610 10608 10606 10605 10603 10601 10599 10597 10595 10593 10590 10588 10586 10583 10580 10578 10576 10574 10573 10572 10571 10569 10568 10567 10566 10564 10563 10561 10560 10558 10556 10554 10553 10551 10550 10549 10548 10547 10547 10546 10545 10545 10544 10543 10543 10543 10543 10544 10545 10546 10547 10547 10548 10550 10552 10553 10552 10550 10551
10610 10608 10606 10605 10603 10601 10599 10598 10596 10594 10592 10590 10588 10585 10583 10580 10578 10575 10573 10570 10568 10567 10565 10563 10562 10561 10560 10558 10557 10556 10554 10552 10551 10549 10547 10545 10543 10541 10539 10538 10537 10536 10535 10535 10534 10534 10533 10532 10532 10532 10532 10533 10534 10535 10537 10537 10538 10540 10542 10544 10544 10543 10542
10603 10601 10600 10598 10596 10594 10593 10591 10589 10587 10585 10583 10580 10578 10575 10572 10569 10567 10565 10563 10561 10559 10557 10556 10554 10553 10551 10550 10549 10547 10545 10543 10541 10539 10537 10535 10533 10531 10529 10527 10526 10525 10524 10523 10523 10522 10522 10521 10521 10520 10520 10521 10523 10524 10525 10526 10528 10530 10532 10534 10535 10534 10534
10596 10594 10593 10591 10589 10588 10586 10584 10582 10580 10578 10575 10573 10570 10567 10564 10561 10559 10557 10555 10553 10552 10550 10548 10546 10544 10543 10541 10540 10538 10536 10534 10531 10528 10526 10524 10522 10520 10518 10516 10515 10514 10513 10512 10511 10510 10509 10508 10509 10509 10508 10508 10510 10512 10514 10515 10516 10518 10521 10524 10525 10525 10526
10589 10587 10586 10584 10582 10581 10579 10577 10576 10573 10571 10568 10565 10562 10559 10556 10554 10551 10549 10548 10546 10544 10543 10541 10539 10537 10534 10532 10530 10528 10526 10523 10521 10518 10515 10513 10510 10508 10506 10504 10503 10502 10501 10501 10500 10498 10497 10495 10495 10496 10495 10495 10496 10498 10501 10502 10504 10506 10509 10513 10515 10515 10517
10582 10580 10579 10577 10575 10573 10572 10570 10568 10566 10563 10560 10557 10554 10551 10548 10546 10544 10542 10540 10539 10537 10535 10533 10531 10529 10526 10524 10521 10518 10516 10513 10511 10508 10505 10502 10499 10496 10494 10492 10491 10490 10489 10489 10488 10487 10485 10483 10482 10482 10483 10483 10483 10484 10486 10488 10490 10493 10496 10500 10503 10504 10507
10575 10573 10572 10569 10567 10565 10564 10562 10561 10559 10556 10554 10550 10547 10544 10541 10539 10537 10535 10533 10531 10529 10527 10525 10523 10520 10518 10515 10512 10509 10506 10503 10500 10498 10494 10492 10489 10486 10483 10481 10479 10478 10477 10476 10476 10475 10473 10471 10469 10468 10469 10470 10470 10471 10472 10474 10476 10478 10481 10487 10491 10493 10495
10568 10566 10564 10562 10559 10557 10555 10553 10552 10551 10549 10546 10543 10540 10537 10534 10532 10530 10527 10525 10523 10521 10519 10517 10515 10512 10509 10506 10503 10499 10496 10493 10490 10487 10484 10481 10479 10476 10474 10471 10468 10466 10465 10464 10463 10463 10461 10459 10456 10454 10454 10454 10456 10457 10458 10460 10462 10465 10467 10471 10477 10480 10481
10560 10559 10557 10554 10552 10549 10547 10544 10543 10541 10539 10537 10535 10532 10530 10527 10525 10523 10520 10518 10515 10513 10510 10508 10505 10502 10499 10496 10492 10489 10485 10482 10479 10475 10473 10471 10469 10466 10464 10461 10458 10455 10452 10451 10449 10449 10448 10446 10444 10441 10438 10438 10439 10441 10442 10444 10447 10451 10454 10456 10462 10467 10468
10553 10551 10549 10547 10544 10542 10539 10537 10535 10533 10531 10529 10527 10525 10522 10520 10518 10515 10513 10510 10507 10504 10501 10498 10495 10492 10489 10485 10482 10478 10474 10471 10468 10465 10462 10459 10457 10455 10453 10450 10447 10443 10439 10436 10434 10433 10433 10431 10430 10428 10425 10422 10422 10422 10424 10427 10431 10435 10440 10444 10448 10452 10454
10547 10545 10542 10540 10537 10534 10532 10530 10528 10526 10524 10522 10520 10518 10515 10513 10510 10508 10505 10502 10499 10496 10492 10489 10485 10481 10478 10474 10471 10467 10463 10460 10456 10453 10450 10447 10444 10441 10438 10436 10433 10430 10425 10421 10418 10417 10416 10416 10415 10414 10411 10408 10405 10403 10404 10407 10412 10418 10424 10430 10434 10437 10440
10540 10538 10535 10533 10530 10528 10525 10523 10521 10519 10517 10515 10513 10511 10508 10506 10503 10500 10497 10494 10491 10487 10483 10479 10475 10471 10467 10464 10460 10456 10452 10448 10444 10440 10437 10433 10429 10425 10422 10419 10417 10414 10411 10407 10404 10402 10401 10400 10399 10398 10397 10394 10389 10386 10385 10387 10393 10399 10406 10413 10418 10423 10427
10533 10530 10528 10525 10523 10521 10519 10517 10514 10512 10510 10508 10506 10504 10501 10499 10496 10493 10490 10487 10483 10479 10475 10471 10466 10462 10458 10454 10450 10446 10441 10437 10433 10428 10423 10419 10414 10410 10406 10403 10400 10398 10396 10393 10390 10388 10386 10385 10383 10382 10381 10379 10375 10371 10369 10371 10375 10381 10387 10395 10401 10406 10411
10525 10523 10521 10518 10516 10514 10512 10510 10508 10506 10504 10502 10500 10497 10495 10492 10489 10486 10483 10479 10475 10471 10467 10463 10459 10454 10450 10445 10440 10436 10431 10426 10422 10417 10412 10406 10401 10396 10392 10388 10385 10382 10381 10378 10375 10374 10373 10371 10369 10367 10365 10363 10360 10357 10355 10357 10360 10365 10370 10377 10384 10389 10395
10518 10516 10514 10512 10510 10508 10506 10504 10502 10500 10498 10496 10493 10491 10488 10485 10482 10479 10475 10471 10468 10464 10460 10455 10451 10446 10442 10437 10431 10426 10421 10416 10411 10406 10401 10396 10391 10386 10380 10376 10372 10369 10367 10364 10361 10360 10359 10356 10354 10353 10351 10348 10346 10344 10343 10344 10347 10351 10355 10360 10367 10374 10379
10511 10509 10508 10506 10504 10502 10501 10498 10496 10494 10492 10489 10487 10484 10481 10478 10474 10471 10467 10463 10459 10455 10452 10447 10443 10439 10434 10429 10423 10418 10412 10407 10402 10396 10391 10386 10382 10377 10372 10367 10362 10359 10355 10352 10349 10347 10346 10343 10341 10339 10337 10335 10334 10333 10332 10334 10336 10338 10341 10346 10352 10358 10364
10505 10503 10502 10500 10498 10496 10494 10492 10490 10488 10485 10482 10480 10476 10473 10470 10467 10463 10459 10455 10451 10447 10443 10439 10435 10431 10426 10421 10416 10410 10404 10399 10393 10388 10383 10378 10373 10369 10364 10359 10355 10351 10347 10343 10340 10338 10336 10332 10329 10326 10324 10323 10323 10323 10322 10323 10326 10327 10329 10333 10339 10344 10350
10499 10497 10495 10494 10492 10490 10488 10486 10483 10481 10478 10476 10473 10469 10466 10463 10459 10456 10452 10448 10444 10440 10435 10431 10427 10422 10418 10413 10407 10402 10396 10391 10386 10380 10375 10370 10366 10361 10356 10352 10348 10344 10339 10334 10331 10329 10327 10323 10319 10316 10314 10314 10313 10313 10312 10314 10316 10317 10319 10323 10327 10332 10339
10493 10491 10489 10487 10485 10483 10481 10479 10477 10474 10472 10469 10466 10463 10459 10456 10452 10448 10445 10441 10437 10432 10428 10423 10418 10414 10409 10404 10399 10394 10388 10383 10377 10372 10367 10363 10358 10354 10350 10345 10341 10337 10332 10327 10322 10320 10318 10314 10310 10307 10306 10305 10304 10304 10303 10304 10306 10308 10311 10314 10317 10321 10327